Wind_Speed
35 35 36 36 36 36 37 38 38 39 39 39 40 40 40 40 39 40 40 40 40 42 45 46 46 47 48 48 50 50 49 48 50 53 54 55 56 56 56 56 55 55 53 51 51 51 50 50 49 48 47 46 45 45 44 42 41 39 38 38 37 37 36 35 35 36 36 36 35 36 37 37 37 37
37 37 38 38 39 38 38 39 40 40 41 41 42 42 42 42 42 41 41 40 39 41 43 45 45 47 48 49 49 50 50 50 50 51 51 52 53 54 54 54 54 54 54 53 52 52 51 51 50 49 48 47 47 47 47 46 44 43 41 40 40 39 38 37 37 37 37 37 38 38 38 39 39 39
40 40 41 41 42 42 42 42 42 42 43 43 44 44 44 45 44 44 44 42 40 41 43 44 45 46 47 48 49 49 50 50 52 52 52 52 53 53 53 52 52 52 53 53 53 53 53 53 52 51 50 49 48 47 47 47 47 45 44 43 42 41 40 39 39 38 39 39 39 40 41 41 41 41
42 42 43 43 44 45 45 45 45 45 45 45 45 46 46 47 47 47 47 45 43 42 44 45 45 47 48 48 49 49 49 50 50 52 54 54 54 54 53 53 52 51 51 52 52 51 52 52 52 51 50 49 48 46 44 46 48 48 47 46 45 44 43 42 41 41 41 41 42 42 43 43 43 43
43 44 44 45 45 46 46 47 48 48 48 47 47 47 48 48 49 49 49 48 46 45 46 46 46 47 49 49 49 49 50 50 50 51 52 53 53 54 54 55 54 54 52 52 52 51 50 50 50 49 49 48 48 45 42 43 46 49 50 50 48 47 46 44 43 43 43 44 44 44 45 45 45 45
45 45 46 47 47 48 48 48 49 50 50 50 50 49 49 49 50 51 51 51 49 47 47 48 48 49 50 50 50 51 51 50 51 51 51 51 51 52 53 55 56 55 53 52 53 53 52 51 50 49 48 47 47 47 44 42 42 44 47 50 50 49 47 46 45 45 46 46 46 47 47 47 47 47
47 47 48 48 50 50 51 51 51 51 52 53 53 53 52 52 51 53 53 53 52 50 49 49 50 50 52 52 51 52 52 52 52 52 51 51 51 51 51 53 54 54 52 52 53 54 53 52 50 48 47 45 45 47 46 43 40 40 42 46 49 49 49 48 47 47 48 49 49 49 49 49 49 49
48 49 49 50 51 52 53 54 54 54 54 54 55 55 56 55 54 54 55 55 54 53 51 51 52 52 52 53 53 53 54 54 53 53 52 52 51 51 51 51 52 51 50 51 52 53 53 51 49 48 47 45 43 44 44 43 41 39 39 41 44 47 48 49 50 50 50 51 51 51 52 51 50 50
48 49 49 50 51 52 53 54 55 57 57 57 56 57 58 58 58 58 57 57 57 56 55 53 54 54 54 55 55 55 55 55 54 54 54 53 52 51 51 50 49 48 48 48 50 52 52 50 49 47 46 44 44 44 43 42 41 40 39 39 40 41 44 47 50 51 52 53 53 53 52 51 49 50
45 47 48 48 49 51 52 53 54 56 58 59 59 59 59 59 60 60 60 60 60 59 58 56 55 56 56 56 56 56 57 56 56 55 55 54 52 51 50 50 48 48 47 48 49 51 51 49 48 46 44 43 44 44 43 42 41 40 39 39 38 38 40 42 46 49 51 52 54 54 52 50 49 49
42 43 45 46 47 48 50 51 52 54 56 59 60 61 61 61 61 62 62 63 63 62 61 60 58 57 58 58 58 58 58 58 57 57 56 54 52 51 51 51 50 49 48 47 48 48 48 48 47 47 45 43 43 43 42 41 41 40 39 37 35 36 38 39 41 43 45 47 49 49 49 48 48 49
41 42 44 45 46 48 49 50 51 51 53 55 58 60 62 63 63 63 63 64 64 65 64 63 62 60 59 59 59 59 59 59 58 58 57 55 53 53 53 53 52 49 47 46 46 47 47 46 47 48 46 44 44 42 41 41 41 40 39 38 36 36 36 37 37 37 39 40 42 42 42 44 45 45
42 43 44 45 46 48 49 50 51 51 52 53 55 57 59 62 64 64 64 64 65 65 66 65 65 63 62 61 61 60 60 60 59 58 58 56 54 53 53 53 52 50 48 47 46 46 46 45 46 47 46 44 42 42 43 43 43 41 41 42 40 37 35 35 34 33 34 35 34 34 36 39 39 36
42 42 43 45 46 48 49 51 52 53 53 54 55 55 57 59 62 64 65 65 65 66 66 66 66 66 65 63 63 62 61 61 60 60 59 57 54 54 54 53 51 50 49 48 46 46 46 45 45 47 47 46 44 45 46 45 44 43 44 44 43 39 36 35 34 33 32 31 30 30 33 34 32 31
43 44 46 47 48 49 51 52 53 54 55 56 56 57 57 58 60 62 64 65 66 66 67 67 67 67 66 65 65 64 62 62 62 61 61 58 56 55 55 53 51 50 50 50 49 48 48 48 47 47 48 49 49 49 49 47 44 43 45 46 43 39 36 34 34 34 32 32 32 32 33 33 32 32
47 48 49 50 51 52 53 54 55 56 57 58 59 59 59 59 60 61 62 63 65 67 67 67 67 67 66 66 66 65 64 63 63 63 62 61 58 55 55 53 51 51 51 52 51 51 50 50 49 48 47 49 50 51 53 51 47 45 47 45 40 39 39 36 35 34 32 32 33 34 35 35 35 35
51 51 52 53 54 55 56 57 58 59 61 62 63 62 61 61 61 61 62 62 64 65 67 68 67 66 66 66 65 66 66 65 64 64 63 62 60 57 55 54 52 51 51 52 52 52 51 51 51 49 48 48 49 51 52 51 49 48 49 46 41 41 42 40 37 34 33 34 36 36 36 36 36 36
54 54 55 56 57 58 59 60 61 63 65 67 66 65 64 63 62 62 62 63 63 64 66 67 66 66 67 66 65 65 66 67 66 65 64 63 62 60 57 55 53 51 50 51 53 52 51 51 50 49 49 49 49 49 50 50 49 50 51 49 44 42 44 43 39 36 37 39 39 39 38 38 37 36
57 58 59 59 59 60 61 63 65 68 70 70 68 66 65 64 64 63 63 64 64 64 65 65 66 66 66 67 66 65 66 67 67 66 64 63 63 62 60 57 54 51 50 51 53 53 51 50 48 48 50 50 49 49 49 50 51 52 53 52 48 44 45 45 41 38 40 41 40 40 41 40 39 36
60 61 61 61 61 62 64 67 70 71 71 70 67 65 64 64 64 64 64 65 65 65 65 65 65 65 65 67 67 66 66 66 67 67 66 64 63 63 61 58 55 52 50 50 51 51 50 47 47 47 48 48 48 49 50 50 51 52 53 54 53 50 47 46 43 41 40 40 39 41 43 42 39 36
62 62 62 63 64 66 69 71 71 71 69 67 65 64 63 62 62 62 63 65 65 65 65 65 65 65 65 65 66 67 67 66 67 67 67 64 63 62 61 59 55 52 50 49 49 50 48 46 45 45 44 45 46 48 50 51 50 50 50 52 53 52 48 46 44 43 42 41 41 43 43 41 39 37
62 63 64 66 68 70 71 71 69 67 66 64 63 62 62 61 61 60 61 63 65 66 66 65 65 65 65 65 65 65 66 66 67 67 66 65 63 62 60 59 56 53 51 49 49 48 47 46 45 42 42 44 46 48 50 51 50 49 48 48 51 51 49 47 46 44 44 43 42 43 43 40 38 37
64 65 67 69 71 72 70 68 66 64 63 62 61 62 62 62 61 60 61 62 63 65 66 66 65 65 64 64 64 64 64 65 67 67 66 65 63 61 59 58 57 54 50 48 48 47 46 47 47 45 44 45 46 48 50 50 49 49 48 48 49 49 48 48 47 45 44 42 40 42 43 40 38 37
65 67 69 71 71 69 67 65 63 62 62 62 62 62 63 62 61 61 62 62 63 64 65 65 65 64 64 64 64 63 63 64 65 66 66 64 62 61 59 58 57 54 50 48 49 49 48 48 48 48 47 46 46 48 49 49 49 49 48 48 47 46 48 48 46 43 41 38 38 41 42 40 39 39
68 69 70 68 66 64 63 62 61 61 62 63 63 63 64 63 63 63 62 62 63 63 63 64 64 64 63 63 62 62 63 63 63 64 64 63 62 60 59 57 57 54 50 49 50 50 50 49 48 49 49 47 45 46 48 49 49 48 47 46 45 47 50 50 46 42 39 37 38 41 41 41 42 41
68 67 65 63 61 61 61 61 61 62 62 63 63 62 62 61 60 60 60 59 60 60 60 61 61 61 62 62 61 61 61 62 62 62 62 62 61 60 58 57 57 54 51 50 51 52 52 51 50 50 50 49 47 46 46 47 48 48 47 47 46 48 52 53 51 47 45 44 43 43 43 43 43 41
64 62 61 60 61 62 61 61 60 59 59 59 58 58 58 58 58 59 59 58 58 57 57 58 57 58 59 60 60 60 60 61 61 61 61 60 60 60 58 56 56 54 51 51 52 53 53 52 51 50 50 51 50 48 46 45 46 46 46 46 46 48 50 53 53 52 51 50 48 47 46 44 41 40
61 61 61 61 61 60 58 56 55 54 53 54 55 57 58 60 61 61 60 59 58 57 57 57 56 56 57 58 60 60 60 60 61 61 61 59 58 57 56 55 55 54 53 51 51 53 54 53 52 51 50 50 51 50 49 47 46 46 46 47 46 46 47 49 51 51 50 49 49 47 46 43 40 39
62 62 61 59 56 53 51 50 50 51 52 54 56 58 59 60 59 58 57 56 56 55 55 55 56 56 57 58 60 61 62 62 61 61 60 58 57 56 55 54 54 54 53 51 50 52 54 54 53 52 51 50 49 49 49 49 48 48 48 49 49 47 45 45 47 47 45 45 45 45 43 41 39 37
62 59 56 53 50 48 48 48 49 50 52 53 54 54 53 53 53 52 52 51 51 50 49 50 51 53 56 59 60 61 62 62 60 59 58 57 56 55 54 54 53 53 52 51 50 52 54 55 53 52 51 50 49 48 47 47 47 47 47 48 49 48 45 44 45 44 44 43 43 43 43 42 39 37
59 55 52 50 49 47 46 45 45 46 47 47 47 46 46 46 47 48 48 49 48 46 44 45 46 48 52 56 58 60 60 60 59 58 56 55 55 54 54 53 53 52 51 50 50 51 52 54 53 52 51 50 49 47 46 46 46 45 44 44 46 48 47 44 42 42 42 42 41 43 44 42 39 40
55 52 50 49 48 46 44 42 41 42 42 41 40 40 41 42 43 44 45 46 46 45 44 43 43 44 47 51 55 57 57 58 58 56 55 54 54 54 54 53 51 50 49 49 49 49 50 52 53 52 51 50 49 47 46 45 44 44 42 42 44 47 47 45 42 41 41 41 42 43 42 40 41 44
49 48 47 46 44 41 39 38 38 39 40 40 40 40 40 41 42 42 43 44 44 44 44 43 43 43 44 47 51 53 54 55 56 55 54 53 53 53 53 51 49 48 48 48 48 48 48 50 52 52 51 50 49 47 46 44 43 42 42 42 44 45 46 45 44 43 43 42 41 40 40 40 41 42
44 42 40 39 38 38 37 37 37 38 40 41 41 41 41 41 40 40 40 41 42 43 44 43 43 43 43 44 47 50 51 52 53 54 53 53 53 52 51 49 48 47 46 46 47 46 47 49 51 51 50 49 48 47 45 44 43 42 42 42 44 45 44 44 44 43 40 36 35 35 36 36 34 32
39 36 34 34 36 37 37 36 36 37 38 39 40 40 40 39 38 38 38 39 40 42 43 43 42 42 43 42 44 47 50 50 51 52 53 52 51 51 50 48 46 45 45 45 44 44 45 47 49 50 49 48 47 46 44 44 43 43 42 42 43 44 43 41 40 38 33 30 30 30 30 29 28 28
33 31 31 33 35 35 35 34 33 33 33 34 35 36 36 37 38 39 40 39 39 40 41 42 42 42 43 43 43 45 48 49 49 49 50 51 50 49 48 46 45 44 43 43 42 42 42 44 46 47 48 47 46 44 44 44 44 43 43 42 43 42 41 38 37 34 31 29 27 25 24 24 25 27
28 28 30 32 32 32 32 31 31 31 31 32 33 34 36 38 39 39 38 37 36 36 37 38 39 40 42 43 43 43 45 47 48 47 48 49 49 48 46 44 43 42 41 40 39 39 39 41 44 45 46 45 44 43 43 44 44 43 43 42 41 40 39 37 34 31 30 28 25 23 22 23 24 26
25 27 28 28 28 27 26 26 26 27 27 28 30 31 32 31 30 28 28 27 28 29 30 31 33 35 37 38 39 41 42 44 46 46 46 47 47 46 44 42 41 40 39 38 37 37 38 40 42 44 44 43 42 42 41 41 41 42 43 41 38 36 36 34 30 28 28 27 25 24 24 24 26 28
23 24 24 22 21 20 20 20 19 18 18 18 19 19 19 18 18 18 19 20 21 23 24 25 27 29 31 32 34 38 40 42 43 44 43 44 44 43 41 40 39 37 36 35 36 37 38 39 40 40 41 40 40 40 40 39 39 40 41 42 39 35 32 30 28 26 25 25 24 25 25 26 27 28
21 20 17 14 14 15 16 16 14 12 12 11 10 10 11 13 14 16 17 18 19 20 20 21 22 24 27 29 32 35 36 38 39 40 40 40 41 40 40 38 37 35 34 34 35 36 38 39 39 39 38 38 39 41 41 40 40 40 40 42 42 37 31 27 25 23 22 23 24 25 25 25 25 25
18 15 12 11 12 12 13 13 13 12 9 8 7 8 10 11 13 14 14 14 14 16 17 17 17 19 22 25 27 29 31 33 35 36 36 37 38 38 38 36 34 34 34 34 34 35 35 36 36 37 37 39 40 41 41 41 40 40 40 40 42 40 34 27 23 22 22 23 24 24 23 23 24 26
14 12 11 10 10 10 11 12 13 11 8 6 6 8 9 10 10 10 10 9 9 11 14 15 15 16 18 21 23 26 28 30 32 32 34 35 36 35 34 33 31 32 32 33 34 36 35 33 33 34 34 36 37 36 35 35 36 37 39 40 40 39 34 27 23 22 23 24 24 24 24 24 26 28
13 10 10 10 9 10 12 13 13 10 7 6 6 8 9 8 7 6 6 6 6 8 11 14 14 13 15 19 22 25 27 29 31 32 33 34 33 32 32 32 32 32 33 33 35 36 35 34 34 34 33 33 33 32 32 33 34 36 40 42 41 41 37 31 27 25 25 26 27 27 26 25 27 30
13 10 9 9 9 10 11 11 12 10 8 7 7 8 8 7 5 5 5 5 6 8 10 14 15 14 15 18 22 26 28 30 32 33 34 33 32 32 33 34 34 34 33 33 33 35 35 34 34 33 32 33 34 34 34 35 36 38 40 42 43 45 46 42 37 32 30 29 30 30 28 26 27 30
14 12 10 9 9 9 9 8 9 8 6 6 6 7 6 5 4 2 4 6 8 9 11 14 16 17 18 21 23 26 29 31 33 33 33 32 32 31 32 32 32 32 32 31 31 32 31 30 29 30 31 33 35 36 36 36 36 37 38 39 41 45 48 47 43 37 34 33 32 30 27 26 28 31
Wind_Direction
259 260 261 262 261 261 261 261 262 262 262 262 263 263 262 261 259 258 258 256 256 256 257 256 256 255 255 253 253 254 254 254 254 253 254 255 257 259 260 260 261 262 262 263 264 266 268 269 269 271 272 272 273 272 269 267 268 270 271 273 274 275 276 277 278 280 282 282 282 282 282 282 282 281
264 262 262 263 263 262 262 261 261 261 262 263 263 264 264 264 263 262 261 259 257 256 257 258 257 256 257 255 254 254 254 253 253 253 253 254 256 258 259 260 261 262 262 262 263 264 266 267 268 270 271 272 273 275 271 266 266 267 268 270 271 273 274 274 276 277 279 280 281 281 281 281 281 281
266 266 265 264 264 263 263 263 262 261 261 261 262 263 264 264 264 264 263 261 259 258 258 259 259 258 257 257 257 255 254 253 253 253 253 252 253 255 258 259 260 261 262 262 262 263 265 266 267 268 270 270 271 274 273 267 264 265 267 268 269 271 272 272 274 275 276 277 278 279 279 280 281 281
264 265 266 266 266 265 264 264 263 262 262 261 261 261 263 263 264 264 263 262 261 261 261 260 261 261 260 259 260 259 257 255 254 254 254 254 253 254 256 257 258 259 259 261 262 262 263 264 265 266 268 267 267 271 274 268 263 264 266 266 267 268 269 270 272 272 273 274 275 276 277 278 280 281
264 264 264 265 265 265 265 265 265 264 263 262 261 261 261 262 263 263 263 262 261 261 263 263 262 263 263 262 262 261 261 259 257 256 255 255 254 254 255 256 256 257 257 259 261 261 262 262 263 264 265 265 263 265 271 270 265 264 265 264 265 266 267 268 270 271 272 273 273 275 276 277 278 280
266 266 266 265 265 264 264 265 265 265 265 264 263 262 261 261 262 262 262 261 260 260 262 263 263 263 264 264 264 264 263 262 261 260 258 257 256 255 255 255 256 257 257 258 260 261 261 262 263 263 264 266 263 262 266 270 269 267 266 264 263 264 265 267 268 270 271 272 272 273 274 275 277 279
267 267 267 267 267 266 265 265 264 264 265 265 265 264 263 261 261 261 261 261 261 260 260 262 263 264 265 265 265 265 265 264 263 263 261 260 258 257 255 255 256 257 257 257 258 259 261 262 263 263 263 265 264 261 262 266 269 270 270 267 264 263 264 266 268 269 271 272 272 272 273 274 276 279
268 268 268 268 268 268 267 267 266 265 264 264 265 265 265 264 262 262 261 261 262 261 261 261 262 263 264 265 265 266 266 266 265 265 264 262 261 260 258 257 257 257 256 256 257 258 259 260 261 262 263 264 264 262 261 263 267 271 272 270 268 266 265 265 267 269 270 271 271 272 272 273 276 279
270 269 269 269 269 268 268 268 268 268 266 265 264 264 265 265 265 264 263 262 262 261 261 261 262 263 263 264 264 265 265 266 266 265 265 264 263 262 262 261 259 258 257 256 255 256 257 257 258 261 263 264 264 262 261 261 265 269 270 271 272 271 270 269 268 268 268 269 271 272 272 273 275 278
275 274 273 272 271 270 269 269 269 268 268 267 266 264 264 264 264 265 265 264 263 262 262 261 261 262 262 263 263 264 264 264 265 265 265 265 264 263 263 262 261 259 257 255 254 254 255 256 257 257 259 261 263 263 262 261 262 265 267 269 271 272 272 272 270 269 268 268 270 271 273 273 275 277
281 280 280 278 277 276 273 272 271 269 269 268 267 266 265 264 263 263 264 264 264 263 263 262 261 261 261 262 263 263 263 264 264 264 264 264 264 263 262 261 260 259 258 256 255 255 256 256 255 254 255 257 260 263 265 264 263 264 265 267 269 272 273 273 272 272 271 271 272 273 273 274 275 277
284 284 284 284 283 282 280 278 276 274 272 270 269 268 267 265 264 263 262 262 263 263 263 263 262 261 260 261 261 262 263 263 263 264 264 264 263 263 262 261 261 260 259 258 257 256 257 256 255 254 253 254 258 262 264 265 265 265 266 267 269 271 274 275 275 276 275 274 273 274 274 275 276 278
284 285 286 286 286 286 285 283 282 280 278 275 272 270 269 267 266 264 263 262 262 262 262 263 263 262 261 260 260 261 262 262 262 263 263 263 263 262 262 262 261 260 259 258 257 256 256 255 254 253 251 251 254 258 260 260 261 264 267 269 268 267 269 273 276 279 278 274 273 274 276 278 278 278
282 283 285 286 287 287 286 286 285 284 282 279 276 274 272 270 268 266 264 263 261 261 261 261 262 262 261 261 260 260 260 261 261 262 262 262 261 261 261 261 260 259 258 256 255 255 254 253 251 251 249 245 244 247 250 252 255 260 264 265 263 261 263 267 273 278 280 277 274 275 279 281 279 275
280 282 283 284 285 286 286 286 286 286 285 283 279 276 274 272 270 268 266 264 262 261 260 260 260 261 261 261 260 259 259 259 260 261 261 261 260 260 261 260 258 257 256 255 254 252 252 250 249 248 247 245 240 239 240 244 249 254 259 260 260 260 262 266 271 275 277 276 275 275 279 282 280 277
280 281 282 283 284 284 285 285 286 287 287 286 283 278 275 272 270 269 267 265 264 262 260 259 259 259 259 259 260 259 259 258 258 259 260 260 259 259 260 260 257 255 256 256 255 252 251 250 248 246 246 246 244 240 239 241 245 251 257 259 261 263 264 266 269 271 272 274 276 277 280 282 281 279
280 281 282 283 284 285 285 286 286 287 287 287 285 280 276 273 271 269 267 266 264 263 261 260 258 257 257 257 257 258 258 258 257 257 258 259 258 258 258 258 257 255 255 256 256 253 251 250 249 247 246 246 246 244 243 244 245 249 254 256 257 260 262 262 263 266 271 275 277 278 280 282 281 279
280 282 283 284 285 286 286 287 287 287 288 287 285 280 276 272 270 268 267 266 265 263 262 260 259 257 256 255 255 256 256 257 257 256 256 257 257 257 256 256 256 255 253 254 254 253 251 250 249 248 247 247 248 247 246 244 243 244 249 253 254 256 259 260 260 263 269 272 273 276 278 280 280 279
281 283 284 285 285 286 286 287 287 287 286 285 282 278 274 271 270 268 266 265 264 263 262 260 259 257 256 254 253 253 254 255 256 256 255 255 255 256 256 255 255 254 252 251 253 254 252 252 251 249 248 248 249 249 248 245 243 242 245 249 252 253 256 258 258 261 267 268 270 273 276 278 280 280
282 284 285 285 285 285 285 285 285 285 284 282 278 275 272 270 269 268 266 265 263 262 262 260 259 257 256 255 253 252 252 252 254 254 254 253 253 254 255 255 254 253 252 252 253 254 253 252 252 251 250 249 249 249 249 247 244 243 244 247 251 253 255 257 257 261 266 267 269 273 274 275 278 279
282 283 284 284 284 285 284 284 283 282 280 278 275 272 270 268 267 267 266 265 263 262 261 260 259 258 256 255 253 252 251 251 251 252 253 253 252 252 253 254 253 253 252 252 253 253 252 250 250 251 251 250 249 249 249 248 247 245 245 248 250 252 254 256 257 261 265 267 268 271 272 273 276 278
282 282 283 283 283 283 283 282 281 279 276 274 272 270 268 267 266 265 265 264 264 263 261 260 259 258 257 255 254 252 251 250 250 250 251 252 251 250 250 252 252 251 251 251 251 252 251 249 247 248 248 248 247 247 248 249 248 247 247 248 250 251 250 253 257 261 265 265 265 268 270 272 274 276
281 282 282 282 282 282 281 279 277 275 273 271 270 269 268 267 266 265 264 263 263 263 262 260 259 258 257 256 254 252 251 250 249 249 249 250 250 250 249 249 250 250 249 249 249 249 249 247 245 244 244 245 245 246 247 248 248 247 247 248 251 250 248 251 257 261 262 262 262 265 269 272 274 276
281 281 281 281 281 280 278 276 274 272 271 270 269 269 268 268 267 265 264 262 261 261 261 260 259 258 256 255 254 253 251 250 249 249 249 249 249 249 248 247 248 248 247 245 246 247 247 246 245 243 243 244 245 245 246 247 247 247 248 249 250 248 246 248 253 257 259 260 262 266 269 272 274 275
281 281 281 280 279 278 276 274 272 271 271 271 270 269 269 268 267 266 264 262 261 259 259 259 259 258 257 255 254 253 251 250 248 248 248 248 248 248 247 246 246 246 244 241 242 245 245 245 244 243 242 243 245 244 244 244 245 247 247 248 247 246 244 245 247 251 258 262 265 267 270 272 274 276
282 282 281 280 278 276 275 274 273 272 271 271 269 268 268 267 266 265 264 261 260 258 257 257 256 257 257 256 254 252 251 250 248 247 246 247 247 247 246 244 244 243 242 239 239 241 243 243 242 242 241 241 243 244 242 242 244 245 246 246 247 246 245 244 246 251 259 264 265 268 271 274 276 278
283 282 281 280 279 278 277 276 274 273 271 269 267 266 265 264 264 263 263 262 260 259 257 256 255 255 255 255 254 252 250 248 247 246 245 245 246 246 245 244 243 242 240 238 237 239 241 241 242 243 242 240 241 243 243 243 244 245 245 245 248 248 247 246 247 251 258 262 264 266 271 276 278 278
284 283 282 282 281 279 278 276 273 270 268 266 264 263 263 263 264 265 265 265 264 262 260 257 255 253 253 252 252 251 249 247 245 244 243 242 243 244 244 243 241 240 239 238 237 238 239 240 241 242 243 242 242 243 245 245 245 246 244 244 247 250 249 248 250 253 258 262 263 266 270 275 278 278
286 285 284 283 281 278 276 274 272 270 268 266 265 264 264 265 265 266 266 265 264 262 260 257 254 251 250 249 248 248 247 245 243 241 241 240 241 242 242 241 240 239 238 237 237 237 237 238 239 241 243 244 244 244 245 245 245 245 244 244 246 249 250 251 253 256 260 264 266 268 271 274 276 277
288 287 285 282 280 278 276 275 273 271 269 268 267 266 265 265 265 264 264 263 262 260 259 257 254 251 248 246 245 244 244 244 242 240 238 238 239 239 239 239 238 237 237 236 235 235 236 236 237 239 241 244 245 245 246 245 244 244 244 244 244 247 249 252 256 261 265 268 270 271 272 272 272 274
288 286 284 283 282 281 280 279 276 272 269 268 267 266 264 264 263 262 262 261 260 259 258 257 256 253 249 245 243 243 243 242 241 239 236 235 236 238 238 237 236 235 235 235 234 234 235 236 235 236 239 242 244 245 246 245 243 243 243 244 244 244 246 249 255 261 264 265 268 271 270 269 270 276
286 285 285 285 285 285 284 280 276 272 269 267 266 264 264 264 263 263 262 260 258 257 257 257 256 254 251 246 243 242 242 241 239 237 234 232 233 236 236 236 234 234 234 234 233 234 235 235 234 234 236 239 242 244 245 245 244 244 244 244 244 244 244 246 251 258 261 263 268 271 269 269 274 277
283 284 285 285 284 283 281 277 273 270 267 266 265 264 265 266 266 266 264 260 257 255 255 255 255 253 251 247 242 241 241 240 238 236 233 230 230 232 235 235 233 232 232 232 232 232 233 233 233 233 234 237 239 242 243 245 245 245 244 244 245 245 246 247 253 260 266 268 268 266 263 265 269 270
283 284 283 282 282 281 280 277 274 270 268 266 265 265 265 266 267 268 266 262 257 253 252 252 252 251 249 246 242 239 239 239 237 235 232 229 228 230 232 233 232 231 231 231 231 231 231 232 232 232 233 235 237 239 242 244 245 245 245 244 245 247 249 251 256 262 265 264 260 257 258 262 264 264
283 282 280 281 283 284 283 280 277 274 270 267 265 264 265 266 267 268 267 263 256 251 249 249 249 248 246 245 241 237 236 236 236 234 230 228 227 228 230 231 230 229 230 230 230 230 230 231 232 232 232 234 236 238 241 243 244 245 245 243 244 247 249 252 258 259 257 254 253 255 258 261 262 265
281 279 281 284 285 285 283 280 278 276 272 269 266 265 265 266 267 267 267 264 257 252 249 248 248 247 245 242 240 236 233 232 232 232 230 227 225 226 227 228 228 228 228 228 228 229 229 230 231 232 233 234 235 237 239 241 243 244 244 242 243 244 247 253 256 252 247 247 251 253 256 259 263 267
280 281 285 287 288 287 286 284 282 279 276 272 269 267 266 267 267 266 265 263 259 255 252 250 248 246 244 241 238 235 232 230 228 228 228 225 223 223 224 225 226 226 226 227 226 227 228 229 229 230 233 234 236 238 239 241 243 243 242 242 241 242 247 253 251 242 238 243 248 251 258 264 267 270
285 288 290 291 292 292 292 291 288 284 279 274 270 267 267 267 265 263 260 258 255 253 251 249 246 243 240 238 235 231 229 227 224 224 224 222 221 221 222 223 224 223 223 223 223 223 226 228 229 230 232 235 237 238 240 243 245 243 242 240 238 241 246 248 241 233 234 241 248 255 263 268 270 271
290 291 291 292 296 299 301 300 297 291 285 278 271 265 264 263 261 258 256 254 252 250 248 247 244 240 235 230 226 224 224 222 220 219 219 219 218 218 218 219 220 220 220 220 219 219 222 226 228 230 232 235 237 237 238 241 242 241 239 236 234 238 243 239 233 234 240 247 254 261 266 268 269 271
293 288 285 287 295 301 303 306 309 307 298 286 275 269 270 270 266 262 258 255 253 250 246 243 242 239 232 225 220 218 218 216 213 213 214 214 214 214 215 215 215 215 215 216 217 219 222 225 228 231 233 234 236 236 236 236 237 239 239 235 232 235 240 236 232 238 248 255 261 265 267 268 271 274
287 280 277 281 291 299 305 314 324 323 304 288 291 298 295 287 276 266 259 251 246 242 237 232 231 232 227 220 215 212 209 206 206 206 206 207 209 209 209 210 210 210 210 211 213 217 221 223 227 230 232 234 236 236 237 239 239 240 240 236 231 233 239 239 237 245 254 259 263 266 268 271 276 279
278 274 278 283 291 303 312 319 327 324 300 284 310 323 314 302 288 272 256 240 230 228 224 217 216 220 217 210 203 199 196 196 197 198 199 201 202 203 203 203 204 205 206 207 210 214 218 221 224 227 230 233 235 236 237 239 238 236 237 236 230 229 234 239 242 250 258 261 263 265 268 273 279 283
276 277 284 287 294 303 304 305 315 316 293 279 309 326 321 313 300 276 252 226 208 208 208 203 199 203 203 196 190 188 187 189 191 192 192 192 191 194 197 200 201 203 206 208 212 216 220 224 227 229 232 235 237 237 237 238 237 235 236 236 229 224 228 239 251 260 265 266 265 265 266 273 281 286
273 276 286 289 294 302 301 302 312 311 285 271 296 316 323 325 310 269 239 209 188 188 193 190 185 183 184 184 183 183 184 186 187 184 182 182 185 192 199 202 204 207 210 214 218 222 226 230 234 236 236 236 238 239 239 239 239 239 239 239 234 229 231 240 253 263 269 270 268 266 266 273 281 285
268 267 276 282 288 297 302 314 327 318 279 266 293 306 317 343 346 285 216 191 177 175 178 179 178 177 176 177 180 182 182 181 178 175 175 179 188 197 203 205 208 212 215 217 221 225 229 232 235 236 236 234 235 236 237 238 239 241 242 241 239 236 236 241 249 258 265 269 269 267 268 274 279 281
Height
5740 5740 5741 5741 5742 5743 5743 5744 5744 5745 5746 5747 5747 5748 5748 5750 5751 5753 5754 5756 5757 5758 5757 5758 5759 5759 5760 5762 5762 5763 5766 5767 5766 5766 5768 5769 5770 5770 5770 5771 5772 5774 5775 5776 5777 5777 5777 5778 5779 5780 5780 5782 5783 5783 5784 5785 5786 5785 5785 5785 5785 5785 5785 5784 5784 5784 5783 5783 5782 5782 5780 5780 5780 5779
5735 5736 5736 5736 5736 5737 5738 5739 5739 5740 5741 5741 5742 5742 5743 5743 5745 5746 5748 5750 5752 5752 5752 5752 5753 5753 5753 5754 5756 5757 5759 5761 5761 5762 5763 5764 5764 5764 5764 5765 5767 5768 5769 5770 5771 5772 5772 5773 5773 5774 5775 5776 5777 5777 5778 5779 5780 5780 5780 5780 5780 5780 5780 5780 5780 5779 5779 5778 5778 5777 5776 5775 5775 5775
5730 5730 5731 5731 5731 5732 5733 5733 5734 5735 5735 5736 5736 5737 5737 5737 5738 5740 5741 5743 5747 5747 5746 5746 5747 5747 5747 5747 5749 5751 5752 5754 5755 5756 5757 5759 5759 5759 5759 5760 5761 5762 5763 5764 5765 5766 5767 5767 5768 5769 5769 5770 5771 5771 5771 5772 5774 5774 5775 5775 5775 5775 5775 5775 5775 5775 5774 5774 5773 5772 5771 5771 5770 5770
5725 5726 5726 5726 5726 5726 5727 5727 5728 5729 5729 5730 5731 5731 5732 5732 5732 5733 5734 5736 5740 5742 5741 5741 5741 5741 5741 5741 5742 5744 5746 5747 5749 5750 5750 5752 5754 5754 5755 5755 5756 5757 5758 5758 5759 5760 5761 5762 5763 5763 5764 5765 5766 5766 5766 5766 5767 5768 5769 5770 5770 5770 5770 5770 5770 5770 5769 5769 5768 5768 5767 5766 5766 5765
5720 5720 5720 5720 5720 5721 5721 5722 5722 5722 5723 5724 5725 5726 5726 5726 5726 5726 5727 5729 5733 5735 5735 5735 5736 5735 5735 5736 5737 5738 5739 5741 5742 5743 5744 5745 5747 5748 5749 5749 5749 5751 5752 5753 5753 5754 5756 5756 5757 5758 5759 5759 5760 5761 5761 5761 5762 5763 5763 5764 5764 5765 5765 5765 5765 5765 5764 5764 5764 5763 5762 5762 5761 5761
5715 5715 5715 5715 5715 5715 5716 5716 5716 5716 5717 5717 5718 5719 5720 5721 5720 5720 5721 5722 5725 5729 5729 5728 5729 5729 5728 5730 5731 5732 5733 5734 5735 5736 5738 5739 5741 5742 5742 5743 5743 5745 5747 5748 5747 5748 5749 5750 5751 5752 5753 5753 5754 5755 5756 5756 5757 5757 5757 5758 5758 5759 5760 5760 5760 5760 5759 5759 5759 5758 5758 5757 5757 5756
5709 5709 5709 5709 5709 5709 5710 5710 5710 5711 5711 5711 5711 5712 5713 5714 5715 5714 5714 5715 5717 5720 5723 5723 5723 5723 5723 5723 5725 5725 5726 5728 5728 5729 5731 5733 5734 5735 5736 5736 5737 5739 5741 5742 5742 5742 5743 5744 5746 5746 5747 5748 5748 5749 5751 5751 5752 5752 5752 5752 5753 5754 5755 5755 5755 5755 5754 5753 5753 5753 5752 5752 5752 5752
5704 5704 5704 5704 5703 5703 5703 5703 5703 5704 5705 5705 5705 5705 5705 5706 5707 5708 5707 5708 5710 5712 5715 5717 5716 5717 5717 5717 5718 5718 5719 5720 5722 5723 5724 5725 5727 5728 5730 5730 5732 5733 5735 5736 5736 5736 5737 5739 5740 5740 5741 5742 5743 5744 5745 5746 5747 5747 5747 5747 5747 5748 5749 5749 5749 5749 5749 5748 5747 5747 5747 5747 5748 5747
5698 5698 5698 5698 5698 5698 5698 5697 5697 5697 5697 5698 5699 5699 5699 5699 5699 5700 5700 5701 5702 5704 5707 5709 5710 5710 5710 5710 5711 5712 5712 5713 5715 5716 5717 5718 5720 5721 5723 5724 5726 5728 5729 5729 5729 5730 5731 5734 5735 5736 5736 5736 5736 5738 5740 5741 5742 5742 5742 5742 5742 5743 5743 5743 5743 5743 5743 5742 5741 5741 5742 5742 5742 5742
5690 5691 5691 5691 5691 5691 5691 5691 5691 5690 5690 5691 5691 5692 5692 5692 5692 5692 5693 5693 5694 5696 5698 5701 5703 5703 5703 5704 5704 5704 5705 5706 5707 5708 5710 5711 5713 5715 5716 5718 5719 5721 5722 5722 5722 5723 5725 5728 5730 5730 5731 5731 5731 5732 5734 5735 5736 5736 5736 5736 5737 5737 5737 5737 5737 5737 5737 5737 5736 5736 5737 5737 5737 5736
5684 5684 5683 5683 5683 5683 5684 5684 5684 5684 5684 5683 5683 5684 5684 5685 5685 5685 5685 5685 5686 5687 5689 5691 5694 5696 5696 5696 5697 5697 5697 5698 5700 5701 5702 5704 5707 5708 5709 5710 5711 5713 5715 5715 5716 5718 5720 5722 5723 5724 5726 5726 5726 5727 5728 5729 5730 5731 5731 5731 5731 5731 5732 5732 5732 5732 5732 5731 5731 5731 5731 5731 5731 5731
5677 5677 5676 5676 5676 5676 5676 5676 5676 5676 5676 5676 5676 5676 5675 5676 5677 5678 5678 5678 5679 5679 5680 5682 5684 5687 5689 5689 5690 5690 5690 5691 5693 5694 5695 5697 5699 5700 5701 5702 5704 5706 5708 5709 5711 5712 5713 5716 5717 5718 5720 5720 5721 5723 5724 5724 5725 5725 5725 5725 5725 5726 5726 5727 5727 5727 5727 5726 5726 5726 5726 5726 5726 5725
5671 5670 5670 5669 5669 5668 5668 5668 5668 5668 5668 5668 5669 5668 5667 5667 5668 5669 5670 5671 5671 5672 5672 5674 5675 5677 5680 5681 5682 5682 5683 5683 5685 5686 5687 5690 5692 5692 5694 5695 5697 5699 5701 5703 5704 5706 5707 5709 5711 5712 5714 5716 5718 5720 5720 5720 5720 5720 5720 5720 5721 5721 5722 5722 5723 5723 5722 5722 5721 5722 5722 5722 5721 5721
5665 5664 5663 5663 5662 5661 5661 5660 5659 5659 5659 5660 5660 5660 5660 5659 5659 5659 5661 5662 5663 5663 5664 5666 5666 5668 5670 5672 5673 5674 5675 5675 5677 5678 5679 5682 5684 5685 5686 5688 5690 5692 5694 5696 5698 5699 5700 5701 5703 5704 5707 5710 5712 5713 5714 5715 5715 5715 5716 5716 5716 5717 5717 5718 5719 5719 5719 5718 5718 5718 5718 5717 5717 5716
5658 5658 5657 5656 5655 5654 5653 5652 5651 5651 5651 5651 5651 5651 5651 5651 5650 5650 5651 5652 5653 5654 5656 5657 5658 5659 5662 5662 5663 5665 5667 5667 5668 5669 5671 5674 5676 5678 5679 5681 5683 5685 5686 5688 5691 5692 5692 5693 5695 5697 5699 5702 5704 5706 5707 5709 5710 5711 5711 5711 5711 5712 5713 5713 5714 5715 5715 5715 5714 5714 5714 5713 5712 5712
5651 5651 5650 5649 5648 5647 5646 5645 5644 5643 5642 5641 5641 5642 5642 5642 5642 5641 5641 5642 5643 5643 5645 5648 5650 5651 5653 5653 5654 5656 5657 5659 5660 5661 5663 5665 5668 5670 5672 5674 5677 5678 5679 5680 5683 5684 5685 5686 5688 5690 5692 5694 5697 5699 5701 5703 5705 5706 5706 5706 5707 5707 5707 5708 5709 5710 5710 5710 5710 5710 5709 5709 5708 5707
5643 5642 5642 5641 5640 5639 5637 5636 5635 5634 5633 5632 5631 5631 5631 5632 5632 5632 5632 5633 5633 5634 5635 5637 5641 5642 5643 5644 5646 5647 5647 5649 5651 5653 5655 5656 5659 5662 5665 5666 5669 5671 5672 5673 5675 5677 5679 5680 5682 5685 5687 5688 5690 5692 5694 5698 5701 5702 5701 5701 5702 5701 5701 5703 5704 5705 5705 5705 5705 5705 5704 5704 5703 5702
5635 5634 5633 5632 5632 5630 5629 5627 5626 5625 5624 5622 5621 5620 5620 5621 5622 5622 5623 5623 5623 5624 5625 5627 5630 5632 5632 5635 5637 5638 5638 5640 5642 5645 5647 5648 5650 5653 5656 5659 5661 5664 5666 5666 5666 5669 5673 5674 5677 5680 5681 5682 5684 5687 5689 5691 5694 5695 5696 5697 5697 5696 5696 5697 5698 5699 5700 5700 5700 5700 5700 5699 5699 5698
5626 5625 5624 5623 5622 5621 5620 5618 5616 5614 5613 5612 5611 5610 5610 5610 5610 5611 5612 5612 5613 5614 5615 5617 5620 5621 5622 5625 5627 5629 5630 5632 5633 5635 5638 5640 5642 5645 5648 5651 5654 5657 5659 5659 5660 5663 5666 5669 5672 5674 5675 5676 5679 5681 5683 5685 5686 5688 5690 5691 5691 5691 5691 5692 5693 5694 5695 5695 5695 5695 5694 5694 5694 5694
5618 5616 5614 5614 5612 5611 5610 5607 5605 5603 5601 5600 5600 5599 5599 5599 5599 5601 5601 5601 5602 5603 5604 5606 5609 5611 5613 5614 5617 5619 5621 5623 5624 5625 5628 5632 5634 5636 5639 5643 5647 5649 5651 5654 5655 5657 5660 5663 5666 5668 5669 5672 5674 5675 5676 5678 5679 5681 5683 5684 5685 5685 5686 5687 5688 5690 5690 5690 5689 5689 5689 5689 5689 5689
5609 5607 5605 5604 5602 5601 5599 5596 5593 5591 5589 5589 5588 5588 5589 5589 5590 5591 5591 5590 5591 5593 5594 5596 5598 5600 5603 5605 5607 5609 5611 5614 5615 5615 5619 5624 5626 5628 5631 5635 5639 5642 5645 5647 5649 5650 5653 5656 5659 5661 5664 5666 5668 5669 5670 5671 5673 5675 5677 5678 5679 5679 5681 5682 5683 5684 5685 5684 5684 5684 5684 5684 5684 5684
5601 5599 5596 5594 5591 5590 5588 5585 5582 5580 5577 5577 5577 5577 5578 5579 5580 5582 5581 5580 5581 5581 5583 5586 5587 5589 5592 5595 5597 5600 5602 5604 5605 5607 5612 5615 5616 5619 5624 5628 5631 5635 5638 5640 5642 5644 5647 5650 5652 5655 5657 5658 5660 5662 5662 5664 5667 5669 5671 5672 5673 5674 5675 5676 5677 5679 5679 5679 5679 5679 5679 5679 5679 5679
5591 5589 5586 5584 5581 5579 5576 5573 5571 5569 5567 5567 5567 5567 5567 5568 5571 5572 5571 5571 5571 5570 5572 5574 5577 5579 5582 5584 5587 5590 5592 5594 5596 5599 5603 5605 5607 5612 5617 5620 5623 5627 5632 5635 5635 5637 5640 5642 5644 5647 5649 5650 5652 5654 5656 5658 5660 5662 5664 5666 5667 5669 5670 5671 5672 5673 5673 5673 5674 5674 5674 5674 5674 5674
5582 5579 5576 5573 5570 5567 5565 5563 5561 5560 5558 5557 5557 5557 5556 5558 5561 5561 5561 5561 5561 5561 5562 5563 5565 5568 5571 5573 5577 5580 5583 5585 5588 5590 5593 5596 5599 5604 5608 5611 5615 5620 5626 5628 5628 5630 5632 5634 5636 5640 5641 5643 5646 5648 5650 5652 5653 5656 5658 5660 5662 5663 5664 5665 5666 5668 5667 5667 5668 5668 5669 5669 5669 5668
5571 5568 5565 5562 5559 5556 5554 5553 5551 5550 5549 5547 5547 5547 5547 5548 5549 5549 5550 5550 5550 5551 5552 5553 5555 5558 5561 5563 5566 5570 5573 5577 5579 5582 5585 5588 5591 5595 5599 5603 5606 5612 5618 5621 5620 5622 5624 5627 5630 5632 5634 5637 5639 5641 5643 5645 5647 5650 5652 5654 5656 5657 5657 5658 5660 5661 5661 5662 5663 5663 5663 5663 5663 5663
5559 5556 5553 5551 5549 5546 5545 5543 5541 5540 5538 5537 5537 5537 5537 5537 5537 5537 5538 5539 5539 5541 5542 5544 5546 5548 5551 5553 5556 5560 5564 5567 5570 5573 5576 5579 5582 5586 5591 5595 5598 5604 5610 5613 5613 5614 5616 5619 5622 5624 5627 5630 5632 5634 5637 5639 5641 5644 5646 5648 5649 5650 5650 5652 5654 5655 5656 5657 5657 5658 5658 5658 5658 5658
5547 5545 5542 5540 5538 5536 5534 5532 5530 5529 5528 5527 5527 5527 5527 5526 5526 5525 5526 5528 5530 5531 5533 5534 5537 5540 5542 5544 5547 5550 5553 5557 5560 5564 5568 5571 5574 5578 5582 5587 5591 5596 5601 5604 5606 5607 5608 5611 5615 5618 5621 5624 5626 5629 5632 5634 5636 5638 5640 5642 5643 5644 5645 5648 5649 5651 5652 5652 5652 5653 5653 5653 5653 5653
5536 5534 5532 5529 5527 5525 5523 5521 5520 5519 5518 5518 5517 5517 5516 5515 5515 5515 5516 5518 5520 5522 5523 5525 5528 5531 5533 5535 5537 5540 5543 5546 5549 5554 5558 5562 5566 5570 5574 5579 5583 5587 5592 5596 5600 5601 5602 5605 5609 5611 5614 5617 5620 5623 5626 5628 5631 5633 5634 5637 5638 5639 5641 5643 5645 5646 5647 5647 5647 5648 5648 5648 5648 5647
5525 5522 5520 5518 5516 5514 5513 5512 5511 5510 5509 5508 5507 5507 5506 5506 5506 5506 5507 5508 5509 5511 5513 5515 5518 5521 5523 5524 5527 5529 5531 5534 5538 5544 5549 5554 5558 5562 5566 5570 5575 5579 5584 5589 5593 5595 5596 5599 5602 5605 5608 5611 5614 5617 5619 5622 5624 5627 5629 5631 5632 5634 5636 5638 5639 5640 5641 5642 5642 5642 5643 5643 5643 5642
5514 5511 5509 5507 5506 5505 5504 5503 5502 5501 5499 5498 5497 5497 5497 5497 5497 5498 5499 5500 5501 5502 5504 5506 5508 5510 5512 5513 5515 5518 5521 5524 5529 5534 5540 5546 5550 5553 5557 5562 5566 5571 5576 5581 5585 5587 5589 5592 5596 5599 5602 5605 5608 5611 5613 5616 5618 5621 5623 5625 5627 5630 5632 5633 5634 5635 5636 5636 5637 5637 5637 5637 5637 5636
5504 5501 5499 5498 5497 5496 5495 5494 5493 5491 5490 5489 5489 5489 5489 5489 5490 5491 5491 5492 5493 5495 5497 5498 5499 5501 5501 5503 5506 5509 5512 5516 5520 5526 5531 5537 5542 5545 5549 5554 5559 5564 5569 5574 5578 5581 5584 5587 5590 5594 5597 5599 5602 5605 5607 5610 5612 5615 5618 5620 5623 5624 5626 5628 5629 5630 5630 5631 5631 5631 5631 5631 5631 5631
5496 5494 5492 5490 5488 5487 5487 5486 5484 5483 5483 5483 5483 5483 5483 5483 5483 5483 5484 5485 5486 5488 5489 5490 5491 5492 5493 5495 5498 5501 5504 5508 5512 5517 5523 5529 5534 5538 5541 5546 5552 5557 5562 5567 5571 5575 5578 5581 5584 5588 5590 5593 5596 5599 5601 5604 5607 5610 5613 5616 5617 5619 5620 5622 5623 5624 5625 5626 5626 5626 5626 5626 5626 5626
5489 5487 5485 5483 5481 5480 5480 5479 5478 5477 5476 5476 5476 5477 5476 5476 5476 5476 5476 5477 5479 5480 5481 5483 5484 5485 5486 5487 5490 5494 5497 5501 5505 5510 5516 5522 5527 5530 5534 5540 5546 5551 5556 5560 5564 5568 5571 5574 5578 5581 5584 5587 5590 5593 5596 5599 5603 5606 5608 5611 5612 5613 5615 5617 5618 5619 5620 5620 5620 5621 5621 5621 5621 5621
5482 5481 5479 5477 5475 5474 5473 5473 5472 5471 5470 5470 5470 5470 5470 5470 5469 5469 5469 5470 5471 5472 5473 5475 5477 5478 5479 5481 5483 5487 5490 5494 5498 5503 5508 5514 5519 5524 5529 5534 5540 5545 5549 5554 5558 5562 5565 5568 5571 5575 5579 5582 5585 5588 5592 5595 5598 5600 5603 5605 5606 5608 5610 5613 5614 5615 5615 5615 5615 5616 5616 5616 5616 5616
5476 5475 5474 5472 5470 5468 5467 5466 5465 5464 5463 5463 5463 5463 5463 5463 5463 5462 5462 5462 5462 5463 5465 5467 5469 5471 5473 5475 5477 5480 5484 5488 5492 5496 5502 5507 5513 5518 5523 5529 5534 5539 5544 5548 5552 5557 5560 5563 5566 5570 5573 5577 5580 5584 5587 5590 5592 5595 5597 5599 5601 5603 5605 5608 5609 5609 5610 5610 5611 5611 5611 5611 5611 5611
5471 5470 5469 5467 5465 5463 5461 5460 5459 5458 5457 5457 5457 5457 5457 5456 5456 5455 5455 5455 5455 5456 5458 5461 5462 5464 5466 5468 5471 5473 5477 5481 5486 5491 5496 5502 5508 5513 5518 5524 5529 5534 5538 5543 5547 5552 5555 5558 5562 5566 5569 5572 5576 5579 5582 5584 5586 5589 5591 5594 5596 5598 5601 5603 5604 5604 5605 5606 5606 5606 5606 5606 5606 5606
5466 5465 5464 5462 5460 5458 5456 5454 5453 5452 5451 5451 5451 5450 5450 5450 5449 5449 5448 5448 5449 5450 5452 5454 5455 5457 5459 5462 5465 5468 5471 5475 5480 5485 5491 5497 5503 5508 5514 5519 5524 5529 5534 5539 5543 5548 5551 5554 5558 5561 5564 5567 5571 5574 5577 5579 5581 5583 5586 5588 5591 5594 5597 5598 5599 5599 5600 5601 5601 5601 5601 5601 5601 5601
5462 5461 5460 5458 5456 5453 5451 5450 5448 5447 5446 5445 5445 5444 5444 5444 5443 5443 5444 5444 5445 5445 5446 5448 5449 5451 5453 5455 5459 5462 5466 5470 5475 5480 5486 5492 5498 5504 5510 5515 5520 5524 5529 5534 5539 5543 5547 5550 5553 5557 5560 5563 5566 5569 5572 5574 5576 5579 5581 5584 5587 5590 5592 5593 5594 5594 5595 5596 5596 5596 5596 5596 5596 5596
5459 5458 5456 5454 5453 5451 5449 5447 5446 5444 5442 5441 5440 5440 5440 5440 5440 5440 5441 5441 5441 5442 5443 5444 5445 5446 5448 5450 5453 5457 5461 5465 5471 5476 5482 5489 5495 5501 5506 5511 5516 5521 5526 5530 5535 5539 5542 5546 5549 5552 5556 5559 5562 5564 5567 5569 5571 5573 5575 5579 5583 5586 5588 5588 5589 5590 5591 5591 5592 5592 5592 5591 5591 5591
5456 5455 5453 5452 5451 5449 5447 5445 5444 5442 5440 5439 5439 5439 5439 5438 5438 5438 5438 5439 5439 5440 5440 5441 5442 5443 5445 5447 5450 5453 5457 5462 5468 5474 5480 5486 5492 5497 5502 5507 5512 5517 5522 5526 5531 5535 5538 5542 5545 5549 5552 5554 5556 5558 5561 5564 5566 5568 5571 5574 5578 5582 5584 5584 5585 5586 5587 5587 5587 5587 5587 5587 5587 5587
5454 5453 5451 5450 5449 5448 5446 5444 5442 5440 5439 5439 5439 5438 5438 5437 5436 5436 5436 5436 5437 5438 5438 5439 5440 5442 5443 5446 5449 5452 5456 5462 5467 5473 5478 5484 5489 5494 5499 5504 5509 5513 5518 5522 5527 5531 5535 5538 5542 5545 5547 5549 5550 5553 5557 5560 5562 5565 5567 5570 5573 5577 5579 5579 5580 5581 5582 5583 5583 5583 5583 5583 5583 5583
5452 5450 5449 5448 5447 5446 5444 5443 5441 5440 5439 5439 5438 5438 5437 5436 5435 5434 5434 5434 5435 5436 5437 5438 5439 5441 5443 5446 5449 5452 5457 5462 5467 5472 5477 5482 5487 5492 5497 5502 5506 5511 5515 5520 5524 5528 5532 5535 5538 5541 5543 5544 5547 5551 5554 5556 5559 5561 5563 5565 5569 5573 5574 5575 5576 5577 5578 5578 5579 5579 5579 5579 5579 5579
5450 5449 5448 5447 5445 5444 5443 5442 5441 5440 5439 5439 5438 5438 5437 5436 5434 5433 5433 5433 5434 5435 5437 5438 5440 5442 5444 5446 5450 5453 5458 5462 5467 5471 5476 5481 5486 5491 5496 5501 5505 5509 5514 5518 5522 5525 5528 5531 5534 5538 5540 5542 5545 5547 5550 5552 5555 5557 5558 5560 5564 5567 5569 5570 5571 5572 5574 5574 5575 5575 5576 5576 5575 5575
5448 5447 5446 5445 5444 5443 5442 5441 5440 5440 5439 5439 5439 5438 5437 5436 5434 5433 5433 5433 5434 5435 5437 5438 5441 5443 5445 5448 5451 5455 5458 5463 5467 5471 5476 5481 5487 5492 5496 5500 5504 5508 5512 5516 5519 5522 5525 5529 5532 5535 5538 5540 5541 5543 5545 5548 5550 5552 5554 5556 5559 5562 5563 5565 5566 5568 5570 5571 5571 5571 5571 5571 5572 5572
5446 5446 5445 5444 5444 5443 5442 5441 5440 5439 5439 5439 5439 5439 5438 5436 5435 5434 5434 5434 5435 5436 5438 5440 5442 5444 5447 5450 5453 5456 5460 5464 5468 5473 5477 5482 5487 5492 5495 5499 5503 5507 5511 5514 5517 5520 5523 5527 5529 5532 5533 5535 5537 5539 5541 5543 5545 5547 5549 5552 5554 5556 5559 5561 5564 5565 5566 5567 5568 5568 5568 5568 5568 5568